Cosmos 1508 Rocket - Orbit

View from above orbital plane
View from above orbital plane
View from above satellite
View from above satellite

Ground track
Ground track

The orbit data is extracted from the following two-line orbital elements,

1 14484U 83111B   13140.54491516  .00027928  00000-0  63225-3 0  2126
2 14484 082.8302 340.7100 0304482 211.6887 217.3992 15.06523950513014
Epoch (UTC): 20 May 2013 13:04:40
Eccentricity: 0.0304482
inclination: 82.8302°
perigee height: 336 km
apogee height: 757 km
right ascension of ascending node: 340.7100°
argument of perigee: 211.6887°
revolutions per day: 15.06523950
mean anomaly at epoch: 217.3992°
orbit number at epoch: 51301

The dashed part of the orbit path shows where the satellite is in the earth's shadow,  

Developed and maintained by Chris Peat, Heavens-Above GmbH. Please read the updated FAQ before sending e-mail. Imprint. DLR